Regional Weather Roundup
Issued by NWS

Home | Current Version | Previous Version | Text Only | Print | Product List | Glossary Off
Versions: 1 2 3 4 5 6 7 8 9 10 11 12 13 14 15 16 17 18 19 20 21 22 23 24 25 26 27 28 29 30 31 32 33 34 35 36 37 38 39 40 41 42 43 44 45 46 47 48 49 50

000
ASUS43 KMKX 300100
RWRWI

WISCONSIN REGIONAL WEATHER ROUNDUP
NATIONAL WEATHER SERVICE MILWAUKEE/SULLIVAN WI
800 PM CDT SAT AUG 29 2015

NOTE: "FAIR" INDICATES FEW OR NO CLOUDS BELOW 12,000 FEET WITH NO
SIGNIFICANT WEATHER AND/OR OBSTRUCTIONS TO VISIBILITY.

WIZ001-002-006>008-014>016-023>028-300200-
NORTHWEST WISCONSIN

CITY           SKY/WX    TMP DP  RH WIND       PRES   REMARKS
SUPERIOR ARPT  PTCLDY    70  65  82 SW5       29.96S
ASHLAND        MOCLDY    67  65  93 S6        29.99S
HAYWARD        MOCLDY    67  62  84 S5        30.02F
SIREN          PTCLDY    69  61  77 S5        30.02S
CUMBERLAND     PTCLDY    64  63  94 S5        30.03S
RICE LAKE      PTCLDY    67  62  84 S5        30.04S
CHETEK         PTCLDY   N/A N/A N/A S3        30.04S
LADYSMITH      MOCLDY    67  62  83 S6        30.06R
EAU CLAIRE     NOT AVBL
MENOMONIE      PTCLDY    67  62  83 CALM      30.03F
NEW RICHMOND   PTCLDY    65  64  93 CALM      30.03S
OSCEOLA        PTCLDY    65  65 100 SE5       30.04F
$$

WIZ003>005-009-010-017-018-300200-
NORTH CENTRAL WISCONSIN

CITY           SKY/WX    TMP DP  RH WIND       PRES   REMARKS
MANITOWISH WTR MOCLDY    65  65 100 CALM      30.04R
ARBOR VITAE    PTCLDY    69  64  81 S3        30.04R
WOODRUFF       PTCLDY    69  64  81 S3        30.04R
RHINELANDER    CLEAR     64  59  83 CALM      30.06R
EAGLE RIVER    CLEAR     65  58  78 SW5       30.04R
LAND O LAKES   CLEAR     66  61  83 CALM      30.05R
PHILLIPS       PTCLDY    68  63  83 SW6       30.04R
TOMAHAWK       CLEAR     63  60  90 CALM      30.06R
MEDFORD        PTCLDY    62  60  94 S5        30.05S
MERRILL        CLEAR     65  62  90 S3        30.06S
$$

WIZ029-030-035-036-043>047-300200-
CENTRAL WISCONSIN

CITY           SKY/WX    TMP DP  RH WIND       PRES   REMARKS
WAUSAU         CLEAR     63  60  90 SW5       30.04F
MOSINEE        CLOUDY    63  61  94 SW3       30.07S
MARSHFIELD     CLOUDY    65  58  78 CALM      30.06S
STEVENS POINT  CLOUDY    63  58  84 CALM      30.07R
WAUPACA        CLOUDY    67  64  87 NW6       30.05R
WAUTOMA        NOT AVBL
WISC RAPIDS    CLOUDY    66  59  78 NE5       30.07R
CAMP DOUGLAS   NOT AVBL
$$

WIZ011>013-019>022-031-037>040-048>050-300200-
NORTHEAST WISCONSIN

CITY           SKY/WX    TMP DP  RH WIND       PRES   REMARKS
ANTIGO         CLEAR     60  59  96 SW5       30.06S
SHAWANO        CLEAR     64  61  88 W3        30.05R
OCONTO         CLEAR     63  63 100 CALM      30.03R
STURGEON BAY   CLEAR     63  57  82 S7        30.06S
GREEN BAY      CLEAR     64  61  90 CALM      30.04R
MANITOWOC      NOT AVBL
APPLETON       CLOUDY    66  61  82 VRB5      30.03R
CLINTONVILLE   CLOUDY    66  61  82 NW5       30.04S
OSHKOSH        CLOUDY    67  62  84 CALM      30.04R
$$

WIZ032>034-041-042-053>061-300200-
SOUTHWEST WISCONSIN

CITY           SKY/WX    TMP DP  RH WIND       PRES   REMARKS
LA CROSSE      CLOUDY    69  60  73 SE5       30.04R
SPARTA         CLOUDY    67  60  75 E5        30.05S
VIROQUA          N/A     66  65  95 CALM      30.06S
BOSCOBEL       CLOUDY    69  65  86 CALM      30.04R
PRAIRIE DU CHI CLOUDY    68  60  75 CALM      30.04R
PLATTEVILLE    CLOUDY    67  65  92 N5        30.04R
$$

WIZ056-057-062-063-064-067-068-300200-
SOUTH CENTRAL WISCONSIN

CITY           SKY/WX    TMP DP  RH WIND       PRES   REMARKS
REEDSBURG      CLOUDY    67  63  86 CALM      30.04S
BARABOO/DELLS  CLOUDY    67  61  83 CALM      30.04S
LONE ROCK      NOT AVBL
MINERAL POINT  CLOUDY    68  63  83 CALM      30.05R
MADISON        CLOUDY    66  62  87 CALM      30.04R
MIDDLETON      CLOUDY    67  65  94 CALM      30.04S
WATERTOWN      CLOUDY    65  65 100 CALM      30.03S
MONROE         CLOUDY    64  63  94 NE6       30.04R
JANESVILLE     CLOUDY    66  64  94 CALM      30.03R FOG
$$

WIZ051-052-058>065-066-070>072-300200-
SOUTHEAST WISCONSIN

CITY           SKY/WX    TMP DP  RH WIND       PRES   REMARKS
MILWAUKEE      DRZL/FOG  63  61  93 N9        30.04R VSB 1/2
WAUKESHA       CLOUDY    61  61 100 NE3       30.06R FOG
MILWAUKEE/TIMM CLOUDY    63  59  88 N5        30.05S FOG
RACINE         FOG       61  59  93 N7        30.05R VSB 3/4
BURLINGTON     CLOUDY    62  61  97 N5        30.04R FOG
KENOSHA        CLOUDY    64  62  93 N6        30.03R FOG
FOND DU LAC    CLOUDY    67  62  84 CALM      30.05R
SHEBOYGAN      CLOUDY    64  61  90 CALM      30.05R
WEST BEND      CLOUDY    63  59  88 CALM      30.05S FOG
JUNEAU         CLOUDY    65  63  93 E3        30.05R
$$

LSZ147-162-300200-
LAKE SUPERIOR

STATION/POSITION TIME  TEMP    WIND        PRES    WAVE
                       AIR SEA DIR/SP/G            HT/PER
                 (UTC) (F)     (DEG/KT/KT) (MB)    (FT/S)
W MID LAKE BUOY  2350   59 55  220/  6/  6 1014.6F   1/ 4
DEVILS ISLAND    0000   68     210/  8/  9 1014.7F
PORT WING        0000   72     190/  4/  5 1014.9
SAXON HARBOR     0040   68        CALM     1014.9R
$$

LMZ867-665-643>646-300200-
LAKE MICHIGAN

STATION/POSITION TIME  TEMP    WIND        PRES    WAVE
                       AIR SEA DIR/SP/G            HT/PER
                 (UTC) (F)     (DEG/KT/KT) (MB)    (FT/S)
CHAMBERS ISLAND  0000   66     160/  2/  6 1016.6F
S GREEN BAY BUOY 0030   64 63  110/  6/  6 1018.3F
N MID LAKE BUOY  2350   65 65  220/  8/  8 1016.8F   1
NORTHPORT PIER   0000   65     160/  4/  7 1016.6F
SISTER BAY       0019   66     160/  6/  7   N/A
ALGOMA LAKESHORE 0014             CALM       N/A
SHEBOYGAN LAKESH 0000   59        CALM     1017.7F
PORT WASHINGTON  0000   58      40/  3/  3 1017.9
ATWATER BUOY     0000   53 48  350/  8/ 10 1018.4R
MILWAUKEE LAKESH 0000   61     360/  7/  8   N/A
S MID LAKE BUOY  2350   68 68  140/ 10/ 10 1015.8F   1/ 3
KENOSHA   LAKESH 0000   63     340/  7/  8 1016.3S
$$

TC  - TEMPERATURE IN CELSIUS
VSB - VISIBILITY IN STATUTE MILES
WCI - WIND CHILL INDEX
HX  - HEAT INDEX



USA.gov is the U.S. government's official web portal to all federal, state and local government web resources and services.